This demonstration page uses our WeatherBlox Daily Observations layout. Learn more.

39.92423, -83.80882

Hourly Observations for November 13, 2019

Temp ( °F °C ) Dew Point ( °F °C ) Humidity (%) Winds ( mph kmh ) Pressure ( in mb ) Visibility ( mi km ) Precip ( " mm )
12:56 am 00:56 Clear 9 -12.8 8 -13.3 96 96 WSW 3 6 30.46 1031 10 16.0934 0 0
1:56 am 01:56 Clear 9 -12.8 7 -13.9 92 92 W 5 7 30.45 1031 10 16.0934 0 0
2:56 am 02:56 Clear 9 -12.8 7 -13.9 92 92 W 3 6 30.46 1031 10 16.0934 0 0
3:56 am 03:56 Clear 8 -13.3 6 -14.4 92 92 Calm 30.45 1031 10 16.0934 0 0
4:56 am 04:56 Clear 7 -13.9 5 -15 91 91 NNW 8 13 30.47 1032 10 16.0934 0 0
5:56 am 05:56 Clear 6 -14.4 5 -15 95 95 Calm 30.47 1032 10 16.0934 0 0
6:56 am 06:56 Clear 6 -14.4 4 -15.6 91 91 Calm 30.45 1031 10 16.0934 0 0
7:56 am 07:56 Sunny 7 -13.9 5 -15 91 91 SSE 3 6 30.45 1031 10 16.0934 0 0
8:56 am 08:56 Sunny 11 -11.7 10 -12.2 96 96 SE 5 7 30.46 1032 10 16.0934 0 0
9:56 am 09:56 Sunny 16 -8.9 13 -10.6 88 88 SE 9 15 30.45 1031 10 16.0934 0 0
10:56 am 10:56 Sunny 20 -6.7 15 -9.4 81 81 SSE 10 17 30.42 1030 10 16.0934 0 0
11:56 am 11:56 Sunny 21 -6.1 15 -9.4 78 78 SSE 10 17 30.4 1030 10 16.0934 0 0
12:56 pm 12:56 Sunny 22 -5.6 16 -8.9 78 78 SSE 8 13 30.38 1029 10 16.0934 0 0
1:56 pm 13:56 Sunny 24 -4.4 17 -8.3 75 75 SSE 6 9 30.38 1029 10 16.0934 0 0
2:56 pm 14:56 Sunny 26 -3.3 17 -8.3 69 69 SE 5 7 30.35 1028 10 16.0934 0 0
3:56 pm 15:56 Sunny 26 -3.3 18 -7.8 71 71 SSE 10 17 30.31 1026 10 16.0934 0 0
4:56 pm 16:56 Sunny 25 -3.9 18 -7.8 75 75 SSE 10 17 30.28 1025 10 16.0934 0 0
5:56 pm 17:56 Clear 22 -5.6 18 -7.8 85 85 SE 8 13 30.27 1025 10 16.0934 0 0
6:56 pm 18:56 Clear 21 -6.1 17 -8.3 85 85 SSE 6 9 30.28 1025 10 16.0934 0 0
7:56 pm 19:56 Clear 21 -6.1 17 -8.3 85 85 SE 6 9 30.27 1025 10 16.0934 0 0
8:56 pm 20:56 Partly Cloudy 23 -5 18 -7.8 81 81 SSE 6 9 30.25 1024 10 16.0934 0 0
9:56 pm 21:56 Clear 23 -5 18 -7.8 81 81 SSE 8 13 30.22 1024 10 16.0934 0 0
10:56 pm 22:56 Partly Cloudy 24 -4.4 18 -7.8 77 77 S 7 11 30.21 1023 10 16.0934 0 0
11:56 pm 23:56 Clear 25 -3.9 19 -7.2 78 78 S 9 15 30.2 1023 10 16.0934 0 0

Powered by AerisWeather